Ellsworth AFB, SD

11:52 PM MDT on May 26, 2018 (GMT -0600)
Ellsworth Air Force Base

Weather History for KRCA - December, 2013

Change the Weather History Date:

Tuesday, December 10, 2013

  Actual Average Record
Temperature  
Mean Temperature 17 °F -  
Max Temperature 30 °F 40 °F 63 °F (2017)
Min Temperature 1 °F 18 °F -7 °F (2000)
Degree Days  
Heating Degree Days 48    
Moisture  
Dew Point 14 °F    
Average Humidity 82    
Maximum Humidity 93    
Minimum Humidity 63    
Precipitation  
Precipitation 0.00 in - - ()
Sea Level Pressure  
Sea Level Pressure 30.11 in    
Wind  
Wind Speed 15 mph (North)    
Max Wind Speed 32 mph    
Max Gust Speed 41 mph    
Visibility 6 miles    
Events Snow    
Averages and records for this station are not official NWS values.
T = Trace of Precipitation, MM = Missing Value Source: NWS Daily Summary

Daily Weather History Graph

Daily Weather History Graph

Search for Another Location

Airport or City:

Astronomy

Dec. 10, 2013 Rise Set
Actual Time 7:16 AM MST 4:13 PM MST
Civil Twilight 6:43 AM MST 4:46 PM MST
Nautical Twilight 6:07 AM MST 5:23 PM MST
Astronomical Twilight 5:32 AM MST 5:58 PM MST
Moon 12:27 PM MST (12/10) 12:25 AM MST (12/10)
Length of Visible Light 10h 02m
Length of Day
8h 56m
Waxing Gibbous, 62% of the Moon is Illuminated
Dec 10
Waxing Gibbous
Dec 17
Full
Dec 25
Last Quarter
Jan 1
New
Jan 7
First Quarter

Hourly Weather History & Observations

Time (MST) Temp. Windchill Dew Point Humidity Pressure Visibility Wind Dir Wind Speed Gust Speed Precip Events Conditions
12:20 AM 14.0 °F -3.9 °F 10.4 °F 86% 29.95 in 10.0 mi North 20.7 mph - N/A   Scattered Clouds
12:58 AM 14.0 °F -1.4 °F 9.5 °F 82% 30.14 in 10.0 mi North 15.0 mph - N/A   Partly Cloudy
1:58 AM 12.9 °F - 7.7 °F 80% 30.14 in 10.0 mi NW 2.3 mph - N/A   Clear
2:58 AM 8.4 °F -4.9 °F 5.0 °F 86% 30.12 in 10.0 mi South 9.2 mph - N/A   Clear
3:58 AM 9.0 °F -4.2 °F 5.7 °F 87% 30.10 in 10.0 mi SSE 9.2 mph - N/A   Clear
4:58 AM 11.1 °F 1.7 °F 7.3 °F 85% 30.07 in 10.0 mi South 5.8 mph - N/A   Clear
5:58 AM 11.5 °F -1.1 °F 7.7 °F 85% 30.06 in 10.0 mi South 9.2 mph - N/A   Partly Cloudy
6:58 AM 12.4 °F - 7.5 °F 81% 30.02 in 10.0 mi SW 2.3 mph - N/A   Overcast
7:58 AM 13.3 °F 5.6 °F 8.6 °F 82% 30.01 in 10.0 mi WNW 4.6 mph - N/A   Overcast
8:58 AM 15.1 °F 6.4 °F 9.7 °F 79% 30.05 in 10.0 mi West 5.8 mph - N/A   Overcast
9:58 AM 19.2 °F - 11.3 °F 71% 30.05 in 10.0 mi Calm Calm - N/A   Scattered Clouds
10:58 AM 23.5 °F - 14.9 °F 70% 30.04 in 10.0 mi NW 2.3 mph - N/A   Overcast
11:58 AM 29.8 °F 20.3 °F 18.7 °F 63% 30.03 in 10.0 mi North 11.5 mph - N/A   Overcast
12:04 PM 30.2 °F 21.3 °F 19.4 °F 64% 29.89 in 10.0 mi North 10.4 mph 20.7 mph N/A Snow Light Snow
12:15 PM 30.2 °F 21.3 °F 19.4 °F 64% 29.89 in 10.0 mi North 10.4 mph - N/A   Overcast
12:58 PM 30.9 °F 19.4 °F 22.3 °F 70% 30.03 in 10.0 mi NW 17.3 mph 29.9 mph 0.00 in   Mostly Cloudy
1:51 PM 30.2 °F 16.5 °F 21.2 °F 69% 29.91 in 10.0 mi NNW 24.2 mph 31.1 mph N/A Snow Light Snow
1:58 PM 30.0 °F 16.6 °F 20.8 °F 69% 30.07 in 10.0 mi NNW 23.0 mph 31.1 mph 0.00 in Snow Light Snow
2:14 PM 28.4 °F 12.3 °F 21.2 °F 74% 29.93 in 0.8 mi NNW 32.2 mph 34.5 mph N/A Snow Light Snow
2:21 PM 26.6 °F 11.1 °F 23.0 °F 86% 29.95 in 0.5 mi North 26.5 mph 41.4 mph N/A Snow Light Snow
2:31 PM 24.8 °F 9.6 °F 21.2 °F 86% 29.95 in 0.8 mi North 23.0 mph 34.5 mph N/A Snow Light Snow
2:41 PM 23.0 °F 8.0 °F 21.2 °F 93% 29.96 in 1.0 mi NNW 20.7 mph 28.8 mph N/A Snow Light Snow
2:48 PM 23.0 °F 7.2 °F 21.2 °F 93% 29.97 in 0.8 mi NNW 23.0 mph 29.9 mph N/A Snow Light Snow
2:58 PM 23.7 °F 8.9 °F 21.2 °F 90% 30.17 in 0.8 mi North 20.7 mph 31.1 mph 0.00 in Snow Light Snow
3:03 PM 23.0 °F 6.6 °F 19.4 °F 86% 29.99 in 0.5 mi North 25.3 mph 31.1 mph N/A Snow Light Snow
3:18 PM 21.2 °F 4.2 °F 19.4 °F 93% 30.01 in 0.5 mi North 25.3 mph 31.1 mph N/A Snow Light Snow
3:33 PM 21.2 °F 6.0 °F 19.4 °F 93% 30.03 in 0.2 mi North 19.6 mph - N/A Snow Snow
3:38 PM 21.2 °F 4.9 °F 19.4 °F 93% 30.03 in 0.5 mi North 23.0 mph - N/A Snow Snow
3:58 PM 21.2 °F 5.2 °F 17.6 °F 86% 30.23 in 0.8 mi North 21.9 mph - 0.00 in Snow Light Snow
4:05 PM 19.4 °F 4.1 °F 17.6 °F 93% 30.06 in 0.9 mi North 18.4 mph - N/A Snow Light Snow
4:16 PM 19.4 °F 2.8 °F 17.6 °F 93% 30.06 in 2.0 mi North 21.9 mph 24.2 mph N/A Snow Light Snow
4:41 PM 19.4 °F 4.5 °F 15.8 °F 86% 30.08 in 3.0 mi North 17.3 mph - N/A Snow Light Snow
4:58 PM 19.4 °F 3.6 °F 15.8 °F 86% 30.27 in 8.0 mi NNW 19.6 mph - 0.00 in Snow Light Snow
5:52 PM 17.6 °F 0.1 °F 14.0 °F 86% 30.12 in 5.0 mi North 23.0 mph 29.9 mph N/A Snow Light Snow
5:58 PM 18.1 °F 2.0 °F 13.5 °F 82% 30.32 in 4.0 mi NNW 19.6 mph 29.9 mph 0.00 in Snow Light Snow
6:00 PM 17.6 °F 0.9 °F 14.0 °F 86% 30.13 in 5.0 mi NNW 20.7 mph 27.6 mph N/A   Haze
6:33 PM 17.6 °F 0.5 °F 12.2 °F 79% 30.15 in 8.0 mi NNW 21.9 mph - N/A Snow Light Snow
6:54 PM 15.8 °F -1.1 °F 12.2 °F 86% 30.17 in 10.0 mi NNW 19.6 mph - N/A   Clear
6:58 PM 16.3 °F 0.1 °F 11.7 °F 82% 30.36 in 10.0 mi NNW 18.4 mph 26.5 mph 0.00 in   Clear
7:02 PM 15.8 °F -3.4 °F 10.4 °F 79% 30.18 in 7.0 mi North 26.5 mph 28.8 mph N/A Snow Light Snow
7:07 PM 14.0 °F -4.3 °F 10.4 °F 86% 30.19 in 2.5 mi North 21.9 mph 28.8 mph N/A Snow Light Snow
7:12 PM 14.0 °F -5.1 °F 10.4 °F 86% 30.19 in 1.5 mi North 24.2 mph - N/A Snow Light Snow
7:22 PM 12.2 °F -6.7 °F 8.6 °F 85% 30.20 in 2.0 mi North 21.9 mph 28.8 mph N/A Snow Light Snow
7:32 PM 10.4 °F -9.5 °F 6.8 °F 85% 30.22 in 2.5 mi North 23.0 mph - N/A Snow Light Snow
8:58 PM 7.3 °F -11.7 °F 3.2 °F 83% 30.47 in 3.0 mi North 18.4 mph - 0.00 in Snow Blowing Snow
9:58 PM 4.6 °F -7.4 °F -0.0 °F 81% 30.50 in 5.0 mi NE 6.9 mph - 0.00 in Snow Blowing Snow
10:58 PM 1.6 °F - -3.5 °F 79% 30.51 in 10.0 mi NE 1.2 mph - 0.00 in   Clear